| time (UTC) | temp F | wind direction | speed knots | gust knots | rain 1hr in | rain 24hr in | rain mn in | humidity % | barometer mb |
| 20260504160425 | 69 | 191 | 4.3 | 7.0 | 0.00 | 0.00 | 0.00 | 33 | 1012.5 |
| 20260504150848 | 68 | 128 | 6.1 | 7.8 | 0.00 | 0.00 | 0.00 | 32 | 1013.3 |
| 20260504150345 | 68 | 199 | 0.9 | 6.1 | 0.00 | 0.00 | 0.00 | 34 | 1013.5 |
| 20260504141315 | 65 | 163 | 0.0 | 2.6 | 0.00 | 0.00 | 0.00 | 37 | 1013.7 |
| 20260504140812 | 65 | 159 | 1.7 | 5.2 | 0.00 | 0.00 | 0.00 | 36 | 1013.8 |
| 20260504140307 | 64 | 237 | 0.9 | 5.2 | 0.00 | 0.00 | 0.00 | 40 | 1013.8 |
| 20260504130736 | 61 | 232 | 0.9 | 2.6 | 0.00 | 0.00 | 0.00 | 39 | 1014.6 |
| 20260504130232 | 61 | 90 | 5.2 | 7.8 | 0.00 | 0.00 | 0.00 | 38 | 1014.5 |
| 20260504120156 | 54 | 136 | 2.6 | 3.5 | 0.00 | 0.00 | 0.00 | 46 | 1014.7 |
| 20260504110623 | 48 | 143 | 0.9 | 0.9 | 0.00 | 0.00 | 0.00 | 58 | 1014.6 |
| 20260504110119 | 47 | 144 | 0.0 | 0.9 | 0.00 | 0.00 | 0.00 | 60 | 1014.7 |
| 20260504100545 | 44 | 135 | 0.0 | 0.0 | 0.00 | 0.00 | 0.00 | 66 | 1014.3 |
| 20260504081939 | 45 | 136 | 0.0 | 0.0 | 0.00 | 0.00 | 0.00 | 61 | 1014.1 |
| 20260504081436 | 45 | 136 | 0.0 | 0.0 | 0.00 | 0.00 | 0.00 | 60 | 1014.3 |
| 20260504080931 | 46 | 136 | 0.0 | 0.0 | 0.00 | 0.00 | 0.00 | 59 | 1014.1 |
| 20260504080428 | 46 | 136 | 0.0 | 0.0 | 0.00 | 0.00 | 0.00 | 59 | 1014.1 |
| 20260504070356 | 48 | 126 | 0.9 | 0.9 | 0.00 | 0.00 | 0.00 | 54 | 1013.6 |
| 20260504050743 | 41 | 20 | 0.0 | 0.0 | 0.00 | 0.00 | 0.00 | 79 | 1013.4 |
| 20260504050241 | 41 | 20 | 0.0 | 0.0 | 0.00 | 0.00 | 0.00 | 78 | 1013.5 |
| 20260504045739 | 41 | 20 | 0.0 | 0.0 | 0.00 | 0.00 | 0.00 | 79 | 1013.5 |
| 20260504045238 | 41 | 20 | 0.0 | 0.0 | 0.00 | 0.00 | 0.00 | 79 | 1013.5 |
| 20260504044737 | 41 | 20 | 0.0 | 0.0 | 0.00 | 0.00 | 0.00 | 78 | 1013.4 |
| 20260504044234 | 41 | 20 | 0.0 | 0.0 | 0.00 | 0.00 | 0.00 | 80 | 1013.6 |
| 20260504043731 | 42 | 20 | 0.0 | 0.0 | 0.00 | 0.00 | 0.00 | 78 | 1013.4 |
| 20260504043228 | 42 | 20 | 0.0 | 0.0 | 0.00 | 0.00 | 0.00 | 77 | 1013.4 |
| 20260504042726 | 41 | 20 | 0.0 | 0.0 | 0.00 | 0.00 | 0.00 | 79 | 1013.3 |
| 20260504042222 | 41 | 20 | 0.0 | 0.0 | 0.00 | 0.00 | 0.00 | 77 | 1013.3 |
| 20260504041718 | 41 | 20 | 0.0 | 0.0 | 0.00 | 0.00 | 0.00 | 77 | 1013.3 |
| 20260504041214 | 41 | 20 | 0.0 | 0.0 | 0.00 | 0.00 | 0.00 | 76 | 1013.0 |
| 20260504040710 | 41 | 20 | 0.0 | 0.0 | 0.00 | 0.00 | 0.00 | 76 | 1013.1 |
| 20260504040208 | 42 | 20 | 0.0 | 0.0 | 0.00 | 0.00 | 0.00 | 77 | 1013.0 |
| 20260504035704 | 42 | 20 | 0.0 | 0.0 | 0.00 | 0.00 | 0.00 | 77 | 1013.0 |
| 20260504035202 | 42 | 20 | 0.0 | 0.0 | 0.00 | 0.00 | 0.00 | 76 | 1013.1 |
| 20260504034659 | 42 | 20 | 0.0 | 0.0 | 0.00 | 0.00 | 0.00 | 75 | 1013.2 |
| 20260504034155 | 42 | 20 | 0.0 | 0.0 | 0.00 | 0.00 | 0.00 | 73 | 1013.1 |
| 20260504033653 | 42 | 20 | 0.0 | 0.0 | 0.00 | 0.00 | 0.00 | 72 | 1013.0 |
| 20260504033150 | 42 | 20 | 0.0 | 0.0 | 0.00 | 0.00 | 0.00 | 70 | 1013.0 |
| 20260504032647 | 43 | 20 | 0.0 | 0.0 | 0.00 | 0.00 | 0.00 | 70 | 1012.9 |
| 20260504032144 | 43 | 20 | 0.0 | 0.0 | 0.00 | 0.00 | 0.00 | 69 | 1013.0 |
| 20260504031641 | 43 | 20 | 0.0 | 0.0 | 0.00 | 0.00 | 0.00 | 68 | 1013.1 |
| 20260504031137 | 44 | 20 | 0.0 | 0.0 | 0.00 | 0.00 | 0.00 | 68 | 1013.1 |
| 20260504030634 | 44 | 20 | 0.0 | 0.0 | 0.00 | 0.00 | 0.00 | 67 | 1013.2 |
| 20260504030131 | 44 | 20 | 0.0 | 0.0 | 0.00 | 0.00 | 0.00 | 66 | 1013.1 |
| 20260504025628 | 44 | 20 | 0.0 | 0.0 | 0.00 | 0.00 | 0.00 | 66 | 1012.9 |
| 20260504025125 | 45 | 20 | 0.0 | 0.0 | 0.00 | 0.00 | 0.00 | 65 | 1013.0 |
| 20260504024622 | 45 | 20 | 0.0 | 0.0 | 0.00 | 0.00 | 0.00 | 64 | 1012.9 |
| 20260504024118 | 45 | 20 | 0.0 | 0.0 | 0.00 | 0.00 | 0.00 | 63 | 1013.0 |
| 20260504023615 | 44 | 20 | 0.0 | 0.0 | 0.00 | 0.00 | 0.00 | 63 | 1013.1 |
| 20260504023111 | 44 | 20 | 0.0 | 0.0 | 0.00 | 0.00 | 0.00 | 63 | 1012.9 |
| 20260504022608 | 44 | 20 | 0.0 | 0.0 | 0.00 | 0.00 | 0.00 | 62 | 1012.9 |
| 20260504022103 | 45 | 20 | 0.0 | 0.0 | 0.00 | 0.00 | 0.00 | 62 | 1013.1 |
| 20260504021602 | 45 | 20 | 0.0 | 0.0 | 0.00 | 0.00 | 0.00 | 60 | 1013.2 |
| 20260504021058 | 46 | 20 | 0.0 | 0.0 | 0.00 | 0.00 | 0.00 | 59 | 1013.0 |
| 20260504020555 | 45 | 20 | 0.0 | 0.0 | 0.00 | 0.00 | 0.00 | 58 | 1013.1 |
| 20260504020051 | 45 | 20 | 0.0 | 0.0 | 0.00 | 0.00 | 0.00 | 59 | 1013.1 |
| 20260504015548 | 46 | 20 | 0.0 | 0.0 | 0.00 | 0.00 | 0.00 | 57 | 1013.1 |
| 20260504015044 | 46 | 20 | 0.0 | 0.0 | 0.00 | 0.00 | 0.00 | 56 | 1013.0 |
| 20260504014540 | 46 | 20 | 0.0 | 0.0 | 0.00 | 0.00 | 0.00 | 56 | 1012.9 |
| 20260504014038 | 46 | 20 | 0.0 | 0.0 | 0.00 | 0.00 | 0.00 | 57 | 1012.9 |
| 20260504013535 | 47 | 20 | 0.0 | 0.0 | 0.00 | 0.00 | 0.00 | 57 | 1013.0 |
| 20260504013032 | 47 | 20 | 0.0 | 0.0 | 0.00 | 0.00 | 0.00 | 53 | 1012.9 |
| 20260504012529 | 47 | 20 | 0.0 | 0.0 | 0.00 | 0.00 | 0.00 | 51 | 1012.8 |
| 20260504012027 | 48 | 20 | 0.0 | 0.0 | 0.00 | 0.00 | 0.00 | 50 | 1012.7 |
| 20260504011524 | 49 | 20 | 0.0 | 0.0 | 0.00 | 0.00 | 0.00 | 49 | 1012.9 |
| 20260504011020 | 49 | 20 | 0.0 | 0.0 | 0.00 | 0.00 | 0.00 | 48 | 1012.6 |
| 20260504010515 | 49 | 20 | 0.0 | 0.0 | 0.00 | 0.00 | 0.00 | 49 | 1012.5 |
| 20260504010011 | 50 | 20 | 0.0 | 0.0 | 0.00 | 0.00 | 0.00 | 46 | 1012.6 |
| 20260504005509 | 51 | 20 | 0.0 | 0.0 | 0.00 | 0.00 | 0.00 | 44 | 1012.4 |
| 20260504005006 | 51 | 20 | 0.0 | 0.0 | 0.00 | 0.00 | 0.00 | 44 | 1012.4 |
| 20260504004504 | 52 | 20 | 0.0 | 0.0 | 0.00 | 0.00 | 0.00 | 42 | 1012.1 |
| 20260504004000 | 53 | 20 | 0.0 | 0.0 | 0.00 | 0.00 | 0.00 | 39 | 1012.5 |
| 20260504003456 | 53 | 20 | 0.0 | 0.9 | 0.00 | 0.00 | 0.00 | 37 | 1012.0 |
| 20260504002954 | 55 | 5 | 0.0 | 0.0 | 0.00 | 0.00 | 0.00 | 36 | 1012.0 |
| 20260504002450 | 55 | 5 | 0.0 | 0.0 | 0.00 | 0.00 | 0.00 | 35 | 1011.9 |
| 20260504001948 | 55 | 269 | 0.0 | 0.9 | 0.00 | 0.00 | 0.00 | 34 | 1011.8 |
| 20260504001445 | 56 | 239 | 0.9 | 0.9 | 0.00 | 0.00 | 0.00 | 34 | 1011.6 |
| 20260504000942 | 57 | 266 | 0.0 | 1.7 | 0.00 | 0.00 | 0.00 | 33 | 1011.8 |
| 20260504000439 | 57 | 309 | 0.0 | 0.9 | 0.00 | 0.00 | 0.00 | 31 | 1011.7 |
| 20260503235936 | 58 | 333 | 0.0 | 0.9 | 0.00 | 0.00 | 0.00 | 30 | 1011.7 |
| 20260503235433 | 58 | 336 | 2.6 | 6.1 | 0.00 | 0.00 | 0.00 | 29 | 1011.5 |
| 20260503234931 | 58 | 351 | 0.9 | 1.7 | 0.00 | 0.00 | 0.00 | 29 | 1011.6 |
| 20260503234428 | 58 | 232 | 0.9 | 0.9 | 0.00 | 0.00 | 0.00 | 30 | 1011.4 |
| 20260503233926 | 58 | 290 | 0.9 | 0.9 | 0.00 | 0.00 | 0.00 | 29 | 1011.4 |
| 20260503233422 | 58 | 263 | 0.9 | 2.6 | 0.00 | 0.00 | 0.00 | 28 | 1011.3 |
| 20260503232919 | 58 | 347 | 1.7 | 3.5 | 0.00 | 0.00 | 0.00 | 28 | 1011.2 |
| 20260503232416 | 59 | 356 | 1.7 | 5.2 | 0.00 | 0.00 | 0.00 | 27 | 1011.2 |
| 20260503231914 | 59 | 284 | 1.7 | 2.6 | 0.00 | 0.00 | 0.00 | 28 | 1011.2 |
| 20260503231411 | 59 | 156 | 0.9 | 1.7 | 0.00 | 0.00 | 0.00 | 27 | 1011.2 |
| 20260503230907 | 59 | 284 | 0.9 | 3.5 | 0.00 | 0.00 | 0.00 | 28 | 1011.4 |
| 20260503230404 | 59 | 207 | 0.9 | 5.2 | 0.00 | 0.00 | 0.00 | 27 | 1011.0 |
| 20260503225902 | 60 | 36 | 1.7 | 6.1 | 0.00 | 0.00 | 0.00 | 27 | 1011.2 |
| 20260503225357 | 60 | 276 | 0.9 | 0.9 | 0.00 | 0.00 | 0.00 | 27 | 1011.2 |
| 20260503224853 | 60 | 300 | 3.5 | 6.1 | 0.00 | 0.00 | 0.00 | 25 | 1011.1 |
| 20260503224351 | 61 | 125 | 1.7 | 2.6 | 0.00 | 0.00 | 0.00 | 26 | 1011.0 |
| 20260503223849 | 61 | 205 | 1.7 | 2.6 | 0.00 | 0.00 | 0.00 | 27 | 1010.9 |
| 20260503223346 | 61 | 293 | 3.5 | 3.5 | 0.00 | 0.00 | 0.00 | 25 | 1011.0 |
| 20260503222841 | 61 | 248 | 0.0 | 7.0 | 0.00 | 0.00 | 0.00 | 26 | 1011.1 |
| 20260503222340 | 61 | 274 | 1.7 | 1.7 | 0.00 | 0.00 | 0.00 | 26 | 1011.2 |
| 20260503221838 | 61 | 216 | 3.5 | 7.0 | 0.00 | 0.00 | 0.00 | 24 | 1011.1 |
| 20260503221337 | 62 | 326 | 4.3 | 6.1 | 0.00 | 0.00 | 0.00 | 24 | 1010.9 |
| 20260503220832 | 62 | 291 | 3.5 | 6.1 | 0.00 | 0.00 | 0.00 | 25 | 1011.0 |
| 20260503220329 | 62 | 300 | 2.6 | 8.7 | 0.00 | 0.00 | 0.00 | 25 | 1010.9 |
| 20260503215826 | 62 | 335 | 2.6 | 7.0 | 0.00 | 0.00 | 0.00 | 24 | 1011.0 |
| 20260503215323 | 62 | 230 | 1.7 | 5.2 | 0.00 | 0.00 | 0.00 | 24 | 1011.1 |
| 20260503214821 | 63 | 255 | 1.7 | 5.2 | 0.00 | 0.00 | 0.00 | 23 | 1011.1 |
| 20260503214318 | 62 | 63 | 0.9 | 2.6 | 0.00 | 0.00 | 0.00 | 24 | 1011.2 |
| 20260503213815 | 61 | 314 | 0.9 | 5.2 | 0.00 | 0.00 | 0.00 | 23 | 1010.9 |
| 20260503213313 | 62 | 208 | 0.9 | 5.2 | 0.00 | 0.00 | 0.00 | 24 | 1011.2 |
| 20260503212810 | 61 | 280 | 1.7 | 2.6 | 0.00 | 0.00 | 0.00 | 26 | 1011.2 |
| 20260503212308 | 61 | 63 | 1.7 | 6.1 | 0.00 | 0.00 | 0.00 | 26 | 1011.1 |
| 20260503211805 | 62 | 261 | 1.7 | 7.8 | 0.00 | 0.00 | 0.00 | 26 | 1011.2 |
| 20260503211301 | 62 | 35 | 7.0 | 9.6 | 0.00 | 0.00 | 0.00 | 23 | 1010.8 |
| 20260503210801 | 62 | 45 | 1.7 | 8.7 | 0.00 | 0.00 | 0.00 | 26 | 1010.9 |
| 20260503210259 | 62 | 282 | 0.0 | 3.5 | 0.00 | 0.00 | 0.00 | 28 | 1010.9 |
| 20260503205754 | 62 | 336 | 6.1 | 7.0 | 0.00 | 0.00 | 0.00 | 24 | 1010.9 |
| 20260503205251 | 62 | 177 | 2.6 | 5.2 | 0.00 | 0.00 | 0.00 | 30 | 1010.8 |
| 20260503204747 | 62 | 30 | 2.6 | 12.2 | 0.00 | 0.00 | 0.00 | 25 | 1010.8 |
| 20260503204245 | 63 | 327 | 3.5 | 7.8 | 0.00 | 0.00 | 0.00 | 23 | 1011.0 |
| 20260503203742 | 62 | 39 | 2.6 | 3.5 | 0.00 | 0.00 | 0.00 | 27 | 1010.7 |
| 20260503203239 | 61 | 27 | 3.5 | 6.1 | 0.00 | 0.00 | 0.00 | 26 | 1011.0 |
| 20260503202736 | 61 | 0 | 1.7 | 2.6 | 0.00 | 0.00 | 0.00 | 28 | 1011.0 |
| 20260503202234 | 61 | 329 | 1.7 | 8.7 | 0.00 | 0.00 | 0.00 | 27 | 1011.1 |
| 20260503201732 | 62 | 357 | 0.9 | 6.1 | 0.00 | 0.00 | 0.00 | 26 | 1011.1 |
| 20260503201229 | 62 | 42 | 0.9 | 3.5 | 0.00 | 0.00 | 0.00 | 31 | 1011.0 |
| 20260503200726 | 62 | 358 | 5.2 | 7.8 | 0.00 | 0.00 | 0.00 | 27 | 1011.0 |
| 20260503200222 | 60 | 281 | 2.6 | 2.6 | 0.00 | 0.00 | 0.00 | 28 | 1011.1 |
| 20260503195719 | 62 | 319 | 3.5 | 6.1 | 0.00 | 0.00 | 0.00 | 28 | 1011.3 |
| 20260503195216 | 61 | 80 | 4.3 | 7.8 | 0.00 | 0.00 | 0.00 | 27 | 1011.2 |
| 20260503194713 | 61 | 196 | 2.6 | 6.1 | 0.00 | 0.00 | 0.00 | 25 | 1011.4 |
| 20260503194209 | 60 | 275 | 3.5 | 3.5 | 0.00 | 0.00 | 0.00 | 29 | 1011.3 |
| 20260503193705 | 60 | 34 | 1.7 | 6.1 | 0.00 | 0.00 | 0.00 | 28 | 1011.2 |
| 20260503193201 | 59 | 316 | 7.8 | 11.3 | 0.00 | 0.00 | 0.00 | 27 | 1011.4 |
| 20260503192657 | 61 | 347 | 1.7 | 12.2 | 0.00 | 0.00 | 0.00 | 29 | 1011.3 |
| 20260503192152 | 60 | 21 | 2.6 | 3.5 | 0.00 | 0.00 | 0.00 | 28 | 1011.6 |
| 20260503191649 | 61 | 314 | 1.7 | 5.2 | 0.00 | 0.00 | 0.00 | 29 | 1011.5 |
| 20260503191147 | 61 | 312 | 2.6 | 6.1 | 0.00 | 0.00 | 0.00 | 28 | 1011.6 |
| 20260503190643 | 61 | 89 | 1.7 | 7.0 | 0.00 | 0.00 | 0.00 | 30 | 1011.6 |
| 20260503190140 | 59 | 297 | 1.7 | 1.7 | 0.00 | 0.00 | 0.00 | 30 | 1011.8 |
| 20260503185637 | 60 | 93 | 3.5 | 6.1 | 0.00 | 0.00 | 0.00 | 29 | 1011.5 |
| 20260503185132 | 59 | 311 | 0.9 | 5.2 | 0.00 | 0.00 | 0.00 | 27 | 1011.8 |
| 20260503184627 | 58 | 9 | 0.9 | 7.0 | 0.00 | 0.00 | 0.00 | 31 | 1011.6 |
| 20260503184124 | 59 | 317 | 2.6 | 5.2 | 0.00 | 0.00 | 0.00 | 32 | 1011.7 |
| 20260503183621 | 60 | 267 | 3.5 | 9.6 | 0.00 | 0.00 | 0.00 | 29 | 1011.9 |
| 20260503183118 | 59 | 14 | 2.6 | 6.1 | 0.00 | 0.00 | 0.00 | 29 | 1012.0 |
| 20260503182616 | 58 | 53 | 0.9 | 5.2 | 0.00 | 0.00 | 0.00 | 32 | 1011.8 |
| 20260503182114 | 59 | 189 | 1.7 | 7.0 | 0.00 | 0.00 | 0.00 | 30 | 1011.9 |
| 20260503181611 | 58 | 321 | 2.6 | 7.0 | 0.00 | 0.00 | 0.00 | 34 | 1011.9 |
| 20260503181108 | 58 | 302 | 3.5 | 7.0 | 0.00 | 0.00 | 0.00 | 31 | 1012.1 |
| 20260503180605 | 59 | 328 | 4.3 | 8.7 | 0.00 | 0.00 | 0.00 | 29 | 1012.0 |
| 20260503175559 | 56 | 66 | 1.7 | 5.2 | 0.00 | 0.00 | 0.00 | 34 | 1012.3 |
| 20260503175056 | 55 | 124 | 1.7 | 3.5 | 0.00 | 0.00 | 0.00 | 37 | 1012.0 |
| 20260503174553 | 55 | 131 | 1.7 | 5.2 | 0.00 | 0.00 | 0.00 | 33 | 1012.3 |
| 20260503174049 | 57 | 298 | 2.6 | 7.0 | 0.00 | 0.00 | 0.00 | 34 | 1012.4 |
| 20260503173544 | 56 | 319 | 1.7 | 3.5 | 0.00 | 0.00 | 0.00 | 39 | 1012.2 |
| 20260503173041 | 55 | 101 | 0.9 | 3.5 | 0.00 | 0.00 | 0.00 | 37 | 1012.5 |
| 20260503172539 | 55 | 71 | 3.5 | 9.6 | 0.00 | 0.00 | 0.00 | 34 | 1012.0 |
| 20260503172036 | 56 | 295 | 1.7 | 5.2 | 0.00 | 0.00 | 0.00 | 34 | 1012.1 |
| 20260503171532 | 56 | 328 | 1.7 | 6.1 | 0.00 | 0.00 | 0.00 | 38 | 1012.3 |
| 20260503171030 | 56 | 336 | 2.6 | 3.5 | 0.00 | 0.00 | 0.00 | 35 | 1012.4 |
| 20260503170526 | 56 | 85 | 1.7 | 6.1 | 0.00 | 0.00 | 0.00 | 34 | 1012.2 |